Big Rapids, MI

10:43 AM EST on December 15, 2019 (GMT -0500)
Roben-Hood

Weather History for KRQB - July, 2019

Change the Weather History Date:

Tuesday, July 23, 2019

  Actual Average Record
Temperature  
Mean Temperature 62 °F -  
Max Temperature 74 °F 81 °F 93 °F (2012)
Min Temperature 49 °F 57 °F 37 °F (2000)
Degree Days  
Heating Degree Days 4    
Growing Degree Days 12 (Base 50)    
Moisture  
Dew Point 52 °F    
Average Humidity 70    
Maximum Humidity 96    
Minimum Humidity 38    
Precipitation  
Precipitation 0.07 in - - ()
Sea Level Pressure  
Sea Level Pressure 30.06 in    
Wind  
Wind Speed 4 mph (NW)    
Max Wind Speed 16 mph    
Max Gust Speed 24 mph    
Visibility 10 miles    
Events      
Averages and records for this station are not official NWS values.
T = Trace of Precipitation, MM = Missing Value Source: NWS Daily Summary

Daily Weather History Graph

Daily Weather History Graph

Search for Another Location

Airport or City:

Astronomy

Jul. 23, 2019 Rise Set
Actual Time 6:21 AM EDT 9:15 PM EDT
Civil Twilight 5:47 AM EDT 9:48 PM EDT
Nautical Twilight 5:04 AM EDT 10:31 PM EDT
Astronomical Twilight 4:13 AM EDT 11:21 PM EDT
Moon 12:26 AM EDT (7/23) 12:45 PM EDT (7/23)
Length of Visible Light 16h 01m
Length of Day
14h 53m
Waning Gibbous, 63% of the Moon is Illuminated
Jul 23
Waning Gibbous
Jul 24
Last Quarter
Jul 31
New
Aug 7
First Quarter
Aug 15
Full

Hourly Weather History & Observations

Time (EDT) Temp. Dew Point Humidity Pressure Visibility Wind Dir Wind Speed Gust Speed Precip Events Conditions
12:17 AM 58.3 °F 50.7 °F 76% 30.06 in 10.0 mi Calm Calm - N/A   Clear
12:35 AM 57.6 °F 51.1 °F 79% 30.06 in 10.0 mi Calm Calm - N/A   Clear
12:36 AM 57.6 °F 51.3 °F 79% 30.06 in 10.0 mi Calm Calm - N/A   Clear
12:55 AM 57.0 °F 51.1 °F 81% 30.06 in 10.0 mi Calm Calm - N/A   Clear
1:18 AM 55.9 °F 50.9 °F 83% 30.06 in 10.0 mi Calm Calm - N/A   Clear
1:36 AM 56.7 °F 51.3 °F 82% 30.06 in 10.0 mi Calm Calm - N/A   Clear
1:55 AM 55.8 °F 50.2 °F 82% 30.07 in 10.0 mi Calm Calm - N/A   Clear
1:56 AM 55.8 °F 50.2 °F 82% 30.07 in 10.0 mi Calm Calm - N/A   Clear
2:15 AM 55.4 °F 51.6 °F 87% 30.07 in 10.0 mi Calm Calm - N/A   Clear
2:16 AM 55.4 °F 51.8 °F 88% 30.07 in 10.0 mi Calm Calm - N/A   Clear
2:39 AM 55.2 °F 50.0 °F 83% 30.06 in 10.0 mi Calm Calm - 0.01 in   Clear
2:57 AM 53.1 °F 50.2 °F 90% 30.06 in 10.0 mi Calm Calm - 0.01 in   Clear
3:15 AM 53.8 °F 51.1 °F 91% 30.06 in 10.0 mi Calm Calm - N/A   Clear
3:35 AM 51.8 °F 49.6 °F 92% 30.06 in 10.0 mi Calm Calm - N/A   Clear
3:36 AM 51.8 °F 49.6 °F 92% 30.06 in 10.0 mi Calm Calm - N/A   Clear
3:55 AM 52.7 °F 50.7 °F 93% 30.05 in 10.0 mi Calm Calm - N/A   Clear
4:17 AM 51.1 °F 48.6 °F 91% 30.05 in 10.0 mi Calm Calm - N/A   Clear
4:35 AM 50.9 °F 49.3 °F 94% 30.05 in 10.0 mi Calm Calm - N/A   Clear
4:36 AM 51.1 °F 49.3 °F 94% 30.05 in 10.0 mi Calm Calm - N/A   Clear
4:55 AM 51.4 °F 49.8 °F 94% 30.05 in 10.0 mi Calm Calm - N/A   Clear
4:56 AM 51.3 °F 49.8 °F 95% 30.05 in 10.0 mi Calm Calm - N/A   Clear
5:15 AM 51.3 °F 49.8 °F 95% 30.05 in 10.0 mi Calm Calm - N/A   Clear
5:20 AM 50.9 °F 49.1 °F 94% 30.05 in 10.0 mi Calm Calm - N/A   Clear
5:38 AM 50.4 °F 49.1 °F 95% 30.05 in 10.0 mi Calm Calm - N/A   Clear
5:56 AM 50.0 °F 48.6 °F 95% 30.06 in 10.0 mi Calm Calm - N/A   Clear
6:15 AM 50.0 °F 48.4 °F 94% 30.06 in 10.0 mi Calm Calm - N/A   Clear
6:35 AM 49.3 °F 48.0 °F 95% 30.06 in 10.0 mi Calm Calm - 0.01 in   Clear
6:36 AM 49.3 °F 48.2 °F 96% 30.06 in 10.0 mi Calm Calm - 0.01 in   Clear
6:59 AM 50.2 °F 48.9 °F 95% 30.06 in 10.0 mi Calm Calm - 0.01 in   Clear
7:17 AM 50.5 °F 49.5 °F 96% 30.07 in 10.0 mi SSW 6.9 mph - N/A   Clear
7:35 AM 52.2 °F 50.9 °F 95% 30.07 in 10.0 mi Calm Calm - N/A   Clear
7:55 AM 53.8 °F 52.0 °F 94% 30.07 in 10.0 mi Calm Calm - N/A   Clear
7:56 AM 54.0 °F 52.2 °F 94% 30.07 in 10.0 mi Calm Calm - N/A   Clear
8:18 AM 55.2 °F 53.1 °F 92% 30.08 in 10.0 mi East 5.8 mph - N/A   Scattered Clouds
8:35 AM 57.4 °F 55.2 °F 92% 30.08 in 10.0 mi Calm Calm - N/A   Scattered Clouds
8:36 AM 57.6 °F 55.4 °F 92% 30.08 in 10.0 mi Calm Calm - N/A   Scattered Clouds
8:55 AM 60.6 °F 55.4 °F 83% 30.08 in 10.0 mi NNW 4.6 mph - N/A   Scattered Clouds
9:15 AM 63.5 °F 49.8 °F 61% 30.08 in 10.0 mi NW 4.6 mph - N/A   Overcast
9:20 AM 63.9 °F 50.0 °F 61% 30.08 in 10.0 mi WNW 4.6 mph - 0.01 in   Mostly Cloudy
9:56 AM 66.2 °F 50.2 °F 56% 30.08 in 10.0 mi NW 4.6 mph - 0.01 in   Mostly Cloudy
10:15 AM 65.8 °F 52.0 °F 61% 30.08 in 10.0 mi NW 5.8 mph - N/A   Overcast
10:16 AM 65.8 °F 52.0 °F 61% 30.08 in 10.0 mi NW 5.8 mph - N/A   Overcast
10:37 AM 67.3 °F 53.4 °F 61% 30.07 in 10.0 mi WNW 5.8 mph - N/A   Overcast
10:56 AM 68.0 °F 55.0 °F 63% 30.07 in 10.0 mi WNW 6.9 mph 20.7 mph N/A   Mostly Cloudy
11:15 AM 68.0 °F 55.6 °F 64% 30.06 in 10.0 mi West 9.2 mph - N/A   Overcast
11:35 AM 70.9 °F 57.0 °F 61% 30.06 in 10.0 mi West 8.1 mph - N/A   Mostly Cloudy
11:39 AM 71.6 °F 57.7 °F 62% 30.06 in 10.0 mi West 9.2 mph - N/A   Scattered Clouds
11:56 AM 71.6 °F 56.1 °F 58% 30.06 in 10.0 mi WNW 9.2 mph 17.3 mph N/A   Scattered Clouds
12:16 PM 73.2 °F 55.9 °F 55% 30.06 in 10.0 mi WNW 10.4 mph - 0.01 in   Scattered Clouds
12:35 PM 73.4 °F 55.4 °F 53% 30.05 in 10.0 mi WNW 10.4 mph 24.2 mph 0.01 in   Scattered Clouds
12:36 PM 73.4 °F 55.0 °F 52% 30.05 in 10.0 mi WNW 10.4 mph 24.2 mph 0.01 in   Scattered Clouds
12:59 PM 73.8 °F 56.1 °F 54% 30.05 in 10.0 mi WNW 9.2 mph 23.0 mph 0.01 in   Scattered Clouds
1:17 PM 73.9 °F 56.1 °F 54% 30.04 in 10.0 mi NW 13.8 mph 18.4 mph N/A   Mostly Cloudy
1:35 PM 74.3 °F 54.5 °F 50% 30.04 in 10.0 mi WNW 10.4 mph 23.0 mph N/A   Scattered Clouds
1:36 PM 74.3 °F 54.3 °F 50% 30.04 in 10.0 mi NW 9.2 mph 23.0 mph N/A   Scattered Clouds
1:55 PM 73.6 °F 56.5 °F 55% 30.04 in 10.0 mi NW 11.5 mph 17.3 mph N/A   Scattered Clouds
1:56 PM 73.6 °F 56.5 °F 55% 30.04 in 10.0 mi NW 11.5 mph 17.3 mph N/A   Scattered Clouds
2:15 PM 74.7 °F 54.1 °F 49% 30.04 in 10.0 mi NW 13.8 mph 21.9 mph N/A   Scattered Clouds
2:38 PM 74.5 °F 52.9 °F 47% 30.03 in 10.0 mi NNW 12.7 mph 23.0 mph N/A   Scattered Clouds
2:56 PM 74.7 °F 49.8 °F 42% 30.03 in 10.0 mi North 13.8 mph 24.2 mph 0.01 in   Clear
3:15 PM 74.5 °F 50.9 °F 43% 30.03 in 10.0 mi NW 15.0 mph 20.7 mph N/A   Scattered Clouds
3:35 PM 74.1 °F 52.3 °F 46% 30.03 in 10.0 mi NNW 11.5 mph 19.6 mph N/A   Scattered Clouds
3:59 PM 74.5 °F 47.3 °F 38% 30.03 in 10.0 mi NW 10.4 mph 19.6 mph N/A   Clear
4:17 PM 74.3 °F 51.6 °F 45% 30.03 in 10.0 mi NNW 11.5 mph 23.0 mph N/A   Scattered Clouds
4:35 PM 74.3 °F 53.2 °F 48% 30.03 in 10.0 mi NW 13.8 mph 20.7 mph N/A   Scattered Clouds
4:36 PM 74.3 °F 53.2 °F 48% 30.04 in 10.0 mi NW 11.5 mph 20.7 mph N/A   Mostly Cloudy
4:55 PM 74.3 °F 52.9 °F 47% 30.03 in 10.0 mi NNW 16.1 mph 20.7 mph N/A   Mostly Cloudy
5:18 PM 73.6 °F 53.6 °F 50% 30.04 in 10.0 mi North 12.7 mph 16.1 mph N/A   Mostly Cloudy
5:37 PM 71.6 °F 54.9 °F 55% 30.05 in 10.0 mi North 11.5 mph 18.4 mph N/A   Scattered Clouds
5:55 PM 72.7 °F 54.5 °F 53% 30.05 in 10.0 mi North 11.5 mph 21.9 mph N/A   Scattered Clouds
5:56 PM 72.7 °F 54.7 °F 53% 30.05 in 10.0 mi North 11.5 mph 21.9 mph N/A   Scattered Clouds
6:15 PM 72.3 °F 54.7 °F 54% 30.05 in 10.0 mi NNW 15.0 mph 20.7 mph N/A   Clear
6:35 PM 72.1 °F 53.6 °F 52% 30.05 in 10.0 mi NW 13.8 mph 19.6 mph N/A   Clear
6:40 PM 71.8 °F 53.4 °F 52% 30.05 in 10.0 mi NW 13.8 mph 19.6 mph N/A   Clear
6:58 PM 71.6 °F 52.9 °F 52% 30.05 in 10.0 mi North 10.4 mph 20.7 mph 0.01 in   Clear
7:16 PM 71.6 °F 53.6 °F 53% 30.06 in 10.0 mi NW 13.8 mph 19.6 mph N/A   Clear
7:35 PM 70.7 °F 52.0 °F 51% 30.06 in 10.0 mi NNW 13.8 mph 17.3 mph N/A   Clear
7:36 PM 70.7 °F 51.8 °F 51% 30.05 in 10.0 mi NNW 15.0 mph - N/A   Clear
7:55 PM 69.8 °F 53.2 °F 56% 30.06 in 10.0 mi NNW 12.7 mph 18.4 mph N/A   Clear
8:19 PM 69.1 °F 52.9 °F 56% 30.06 in 10.0 mi NNW 11.5 mph 16.1 mph N/A   Clear
8:37 PM 68.0 °F 51.8 °F 56% 30.06 in 10.0 mi North 8.1 mph - N/A   Clear
8:55 PM 67.1 °F 51.8 °F 58% 30.06 in 10.0 mi NW 8.1 mph - N/A   Clear
8:56 PM 66.9 °F 51.8 °F 58% 30.06 in 10.0 mi NW 8.1 mph - N/A   Clear
9:15 PM 65.7 °F 51.6 °F 60% 30.06 in 10.0 mi NNW 3.5 mph - N/A   Clear
9:39 PM 64.6 °F 49.5 °F 58% 30.07 in 10.0 mi NW 4.6 mph - N/A   Clear
9:57 PM 63.9 °F 49.1 °F 59% 30.07 in 10.0 mi NW 3.5 mph - N/A   Clear
10:16 PM 63.3 °F 49.3 °F 60% 30.08 in 10.0 mi Calm Calm - N/A   Clear
10:35 PM 61.5 °F 50.0 °F 66% 30.09 in 10.0 mi North 5.8 mph - N/A   Clear
10:55 PM 58.5 °F 51.6 °F 78% 30.09 in 10.0 mi Calm Calm - 0.01 in   Clear
11:18 PM 57.7 °F 50.9 °F 78% 30.10 in 10.0 mi Calm Calm - N/A   Clear
11:36 PM 55.4 °F 50.7 °F 84% 30.10 in 10.0 mi West 3.5 mph - N/A   Clear
11:55 PM 55.6 °F 50.9 °F 84% 30.10 in 10.0 mi West 3.5 mph - N/A   Clear